Погода в Лене

Россия / Архангельская область     62°04′32″N   48°38′11″E
темп.,
°C
ветер,
м/с
пор.,
м/с
влажн.,
%
обл.,
%
осадки,
мм/ч
давл.,
гПа
погр.,
м
19 сентября, вс
вс1900:00+1ссз4118678 0.0 1024659
03:00+2ссз4982100 0.0 1024792
06:00+3ссз4973100 0.0 1025968
09:00+4с4867100 0.0 10251425
12:00+5с4858100 0.0 10261452
15:00+5ссз4866100 0.0 10271393
18:00+4ссз4971100 0.0 1027653
21:00+3с3971100 0.0 1028610
20 сентября, пн
пн2000:000ссз31084100 0.0 1030338
03:000с298780 0.0 1031321
06:00+2с277886 0.0 1031366
09:00+5св356119 0.0 10321005
12:00+7св34535 0.0 10331158
15:00+8св34535 0.0 10321188
18:00+3ссв22805 0.0 103215
21:00+1св27915 0.0 1033138
21 сентября, вт
вт2100:00−1всв25965 0.0 103499
03:00−2всв22975 0.0 103437
06:00−2всв23975 0.0 103372
09:00+4в23685 0.0 1033512
12:00+8в23535 0.0 1031915
15:00+9всв235270 0.0 1029912
18:00+3всв228022 0.0 102912
21:00+1всв22905 0.0 102917
22 сентября, ср
ср2200:000всв11943 0.0 103010
03:00−1св22950 0.0 102919
06:000всв22945 0.0 102943
09:00+6всв24685 0.0 1029374
12:00+10в34565 0.0 1028788
15:00+11в34585 0.0 1027952
18:00+5в27865 0.0 1027128
21:00+3в27925 0.0 1028128
23 сентября, чт
чт2300:00+2вюв26965 0.0 1027141
03:00+2вюв26976 0.0 1027129
06:00+1вюв289817 0.0 1026175
09:00+8юв48753 0.0 1025444
12:00+12юв465810 0.0 1024806
15:00+13юв476085 0.0 1023885
18:00+10юв31075100 0.0 1022423
21:00+9ююв3127575 0.0 1021553